Lone Rock, WI

2:49 AM CDT on June 25, 2017 (GMT -0500)
Tri-County Regional

Weather History for KLNR - September, 2013

Change the Weather History Date:

Monday, September 9, 2013

  Actual Average Record
Temperature  
Mean Temperature 80 °F -  
Max Temperature 95 °F 74 °F 95 °F (2013)
Min Temperature 66 °F 51 °F 42 °F (2008)
Cooling Degree Days 16    
Growing Degree Days 30 (Base 50)    
Moisture  
Dew Point 68 °F    
Average Humidity 75    
Maximum Humidity 94    
Minimum Humidity 49    
Precipitation  
Precipitation 0.00 in - - ()
Sea Level Pressure  
Sea Level Pressure 29.82 in    
Wind  
Wind Speed 5 mph (SE)    
Max Wind Speed 12 mph    
Max Gust Speed 16 mph    
Visibility 7 miles    
Events      
Averages and records for this station are not official NWS values.
T = Trace of Precipitation, MM = Missing Value Source: NWS Daily Summary

Daily Weather History Graph

Daily Weather History Graph

Search for Another Location

Airport or City:

Trip Planner

Search our weather history database for the weather conditions in past years. The results will help you decide how hot, cold, wet, or windy it might be!

Date:

Astronomy

Sep. 09, 2013 Rise Set
Actual Time 6:33 AM CDT 7:21 PM CDT
Civil Twilight 6:05 AM CDT 7:49 PM CDT
Nautical Twilight 5:30 AM CDT 8:24 PM CDT
Astronomical Twilight 4:55 AM CDT 8:59 PM CDT
Moon 11:04 AM CDT (9/9) 9:28 PM CDT (9/9)
Length of Visible Light 13h 44m
Length of Day
12h 47m
Waxing Crescent, 19% of the Moon is Illuminated
Sep 9
Waxing Crescent
Sep 12
First Quarter
Sep 19
Full
Sep 26
Last Quarter
Oct 4
New

Hourly Weather History & Observations

Time (CDT) Temp. Heat Index Dew Point Humidity Pressure Visibility Wind Dir Wind Speed Gust Speed Precip Events Conditions
12:43 AM 69.8 °F - 64.4 °F 83% 29.95 in 8.0 mi East 5.8 mph - N/A   Overcast
12:56 AM 69.1 °F - 64.0 °F 84% 29.92 in 8.0 mi East 6.9 mph - N/A   Overcast
1:56 AM 69.1 °F - 64.0 °F 84% 29.91 in 8.0 mi East 4.6 mph - N/A   Overcast
2:56 AM 69.1 °F - 64.0 °F 84% 29.89 in 8.0 mi ESE 3.5 mph - N/A   Overcast
3:56 AM 66.9 °F - 64.0 °F 90% 29.88 in 7.0 mi East 5.8 mph - N/A   Scattered Clouds
4:56 AM 66.9 °F - 64.0 °F 90% 29.86 in 6.0 mi East 4.6 mph - N/A   Partly Cloudy
5:56 AM 66.9 °F - 64.9 °F 93% 29.86 in 5.0 mi East 4.6 mph - N/A   Scattered Clouds
6:56 AM 66.9 °F - 64.9 °F 93% 29.86 in 3.0 mi East 5.8 mph - N/A   Partly Cloudy
7:14 AM 68.0 °F - 66.2 °F 94% 29.89 in 4.0 mi East 5.8 mph - N/A   Mostly Cloudy
7:56 AM 69.1 °F - 66.0 °F 90% 29.86 in 4.0 mi East 6.9 mph - N/A   Overcast
8:56 AM 70.0 °F - 66.9 °F 90% 29.85 in 4.0 mi ESE 4.6 mph - N/A   Overcast
9:56 AM 73.0 °F - 69.1 °F 87% 29.84 in 3.0 mi East 6.9 mph - N/A   Overcast
10:23 AM 73.4 °F - 69.8 °F 88% 29.86 in 4.0 mi ESE 5.8 mph - N/A   Overcast
10:56 AM 75.0 °F - 70.0 °F 84% 29.84 in 4.0 mi Calm Calm - N/A   Haze
11:56 AM 79.0 °F - 72.0 °F 79% 29.83 in 5.0 mi SSW 5.8 mph - N/A   Haze
12:09 PM 78.8 °F - 71.6 °F 78% 29.85 in 5.0 mi Calm Calm - N/A   Haze
12:56 PM 82.9 °F 88.0 °F 72.0 °F 69% 29.80 in 5.0 mi SE 4.6 mph - N/A   Haze
1:56 PM 87.1 °F 96.3 °F 75.0 °F 67% 29.77 in 6.0 mi SE 9.2 mph - N/A   Haze
2:56 PM 93.9 °F 105.4 °F 75.0 °F 54% 29.74 in 8.0 mi SSW 11.5 mph - N/A   Clear
3:56 PM 95.0 °F 104.5 °F 73.0 °F 49% 29.73 in 9.0 mi SSW 11.5 mph 16.1 mph N/A   Clear
4:56 PM 95.0 °F 104.5 °F 73.0 °F 49% 29.73 in 10.0 mi SW 11.5 mph - N/A   Clear
5:56 PM 93.9 °F 102.1 °F 72.0 °F 49% 29.73 in 10.0 mi SSW 6.9 mph - N/A   Clear
6:56 PM 89.1 °F 94.1 °F 70.0 °F 53% 29.74 in 10.0 mi SSW 4.6 mph - N/A   Clear
7:56 PM 88.0 °F 91.4 °F 68.0 °F 51% 29.75 in 10.0 mi SSW 6.9 mph - N/A   Clear
8:56 PM 84.0 °F 87.0 °F 68.0 °F 58% 29.76 in 10.0 mi South 5.8 mph - N/A   Clear
9:56 PM 81.0 °F 83.8 °F 68.0 °F 65% 29.77 in 10.0 mi Calm Calm - N/A   Clear
10:56 PM 75.9 °F - 68.0 °F 76% 29.79 in 10.0 mi Calm Calm - N/A   Clear
11:56 PM 73.0 °F - 66.9 °F 81% 29.80 in 10.0 mi Calm Calm - N/A   Clear